STARLINK-11745, 64376

Orbit data source: Space-Track

STARLINK-11745, 64376 is a payload satellite owned by SpaceX/Seattle (US) in LEO that was launched on Fri, 13 Jun 2025 UTC via an FALCON 9 launch vehicle from the Air Force Eastern Test Range (AFETR). Payload-class satellites include a variety of spacecraft equipped with specific instruments for various scientific and technological missions. These include communications satellites like Starlink; space stations such as the ISS; scientific satellites like the Hubble; Earth observation satellites from companies like Planet Labs, Umbra, and HawkEye 360; GPS; miniature CubeSats for education and research; and military/defense satellites.

Loading next visibility...
Identifier
64376, 2025-127G
Orbit
LEO
Country
Flag of USUS
Related business
Manufacturer
SpaceX/Seattle
Mission
Operational Commercial Communications
Bus & Motor
STARLINK V2MD, Unknown motor
Mass
960 kg wet, ~910 kg dry
Launch date (UTC)
2025-06-13 (10 months ago)
Launch vehicle
FALCON 9
Launch site
Air Force Eastern Test Range (AFETR)
Object type
Payload
Rocket body
Debris
Shape & HBR
Box + 2 Pan, 18.1 m
Radar Cross Section
36.964 m², Large (>1 m²)

Expand to show TLE details & history
Last TLE update: 19 hours ago

TLE from 19 hours ago
0 STARLINK-11745
1 64376U 25127G   26094.89313374  .00161312  00000-0  12363-2 0  9993
2 64376  42.9978 286.5765 0001020 337.6632  22.4191 15.70842340 47621
Epoch: 2026-04-04T21:26Z
TLE epoch observation values (Epoch: 2026-04-04T21:26:06.755Z)
Latitude
-0.00001°
Longitude
131.84197°
Altitude
355.624 km
Speed
7.698 km/s
True Right ascension
19h 06m 18s
True Declination
0° 00' 00"
Sunlit
Object was in daylight at epoch
Visualization orbit readout
Latitude
Unknown
Longitude
Unknown
Altitude
Unknown
Speed
Unknown
Apparent Right ascension
Unknown
Apparent Declination
Unknown
Sunlit
N/A
Visualization observer readout
Local Sidereal Time
22:14:55
Azimuth
Unknown
Elevation
Unknown
Doppler factor
Unknown
Orbital elements
Apogee altitude
359.157 km
Perigee altitude
357.783 km
Semi-major axis
6,736.607 km
Eccentricity
0.0001
Inclination
42.9978°
RAAN
286.5765°
Arg. of periapsis
337.6632°
True anomaly
22.42356°
Mean anomaly
22.4191°
Eccentric anomaly
22.42133°
Mean motion
3.92538 °/min
Orbital period
91.71 mins
BSTAR
0.0012363
Loading maneuver chart data...
Computing Atmospheric mass density...
Loading historical data...
Loading historical data...
Loading historical data...
Loading historical data...
Loading historical data...
Loading historical data...
Loading historical data...

Documentation

Showing up to 5 results
|